Time,TemperatureF,DewpointF,PressureIn,WindDirection,WindDirectionDegrees,WindSpeedMPH,WindSpeedGustMPH,Humidity,HourlyPrecipIn,Conditions,Clouds,dailyrainin,SolarRadiationWatts/m^2,SoftwareType,DateUTC
2013-08-22 00:50:00,56.0,53.0,30.26,South,187,2.0,4.0,89,-99.99,,,-99.99,0.000000,,2013-08-22 07:50:00,
2013-08-22 01:50:00,54.0,51.0,30.25,SSE,160,5.0,8.0,89,-99.99,,,-99.99,0.000000,,2013-08-22 08:50:00,
2013-08-22 04:50:00,51.0,49.0,30.24,SSE,154,4.0,6.0,94,-99.99,,,-99.99,0.000000,,2013-08-22 11:50:00,
2013-08-22 05:50:00,50.0,47.0,30.25,South,184,2.0,5.0,91,-99.99,,,-99.99,0.000000,,2013-08-22 12:50:00,
2013-08-22 06:50:00,51.0,49.0,30.26,South,176,3.0,4.0,93,-99.99,,,-99.99,40.000000,,2013-08-22 13:50:00,
2013-08-22 08:50:00,67.0,52.0,30.25,SSE,159,7.0,12.0,59,-99.99,,,-99.99,490.000000,,2013-08-22 15:50:00,
2013-08-22 09:50:00,73.0,49.0,30.26,SSE,168,9.0,14.0,42,-99.99,,,-99.99,480.000000,,2013-08-22 16:50:00,
2013-08-22 10:24:00,73.0,49.0,30.26,SSE,168,9.0,14.0,42,-99.99,,,-99.99,480.000000,,2013-08-22 17:24:00,
2013-08-22 10:33:00,73.0,49.0,30.26,SSE,168,9.0,14.0,42,-99.99,,,-99.99,480.000000,,2013-08-22 17:33:00,
2013-08-22 10:43:00,73.0,49.0,30.26,SSE,168,9.0,14.0,42,-99.99,,,-99.99,480.000000,,2013-08-22 17:43:00,
2013-08-22 10:50:00,77.0,48.0,30.25,South,169,8.0,13.0,36,-99.99,,,-99.99,820.000000,,2013-08-22 17:50:00,
2013-08-22 11:50:00,79.0,44.0,30.23,SSE,161,7.0,12.0,29,-99.99,,,-99.99,540.000000,,2013-08-22 18:50:00,
2013-08-22 13:50:00,81.0,42.0,30.19,SSE,156,10.0,17.0,25,-99.99,,,-99.99,440.000000,,2013-08-22 20:50:00,
2013-08-22 14:50:00,83.0,41.0,30.16,SSE,164,11.0,20.0,23,-99.99,,,-99.99,560.000000,,2013-08-22 21:50:00,
2013-08-22 15:50:00,80.0,40.0,30.14,SSE,154,11.0,17.0,24,-99.99,,,-99.99,470.000000,,2013-08-22 22:50:00,
2013-08-22 16:22:00,80.0,40.0,30.14,SSE,154,11.0,17.0,24,-99.99,,,-99.99,470.000000,,2013-08-22 23:22:00,
2013-08-22 16:33:00,80.0,40.0,30.14,SSE,154,11.0,17.0,24,-99.99,,,-99.99,470.000000,,2013-08-22 23:33:00,
2013-08-22 16:42:00,80.0,40.0,30.14,SSE,154,11.0,17.0,24,-99.99,,,-99.99,470.000000,,2013-08-22 23:42:00,
2013-08-22 16:50:00,82.0,41.0,30.13,South,184,11.0,19.0,23,-99.99,,,-99.99,520.000000,,2013-08-22 23:50:00,
2013-08-22 18:50:00,69.0,44.0,30.17,South,184,5.0,12.0,41,-99.99,,,-99.99,50.000000,,2013-08-23 01:50:00,
2013-08-22 19:50:00,64.0,49.0,30.15,ENE,76,5.0,11.0,58,-99.99,,,-99.99,0.000000,,2013-08-23 02:50:00,
2013-08-22 20:50:00,62.0,50.0,30.19,SSE,166,11.0,17.0,65,-99.99,,,-99.99,0.000000,,2013-08-23 03:50:00,
2013-08-22 21:50:00,61.0,49.0,30.17,SSE,151,3.0,6.0,63,-99.99,,,-99.99,0.000000,,2013-08-23 04:50:00,
2013-08-22 22:50:00,60.0,48.0,30.17,ESE,121,6.0,7.0,65,-99.99,,,-99.99,0.000000,,2013-08-23 05:50:00,
2013-08-22 23:50:00,55.0,50.0,30.16,South,179,6.0,9.0,82,-99.99,,,-99.99,0.000000,,2013-08-23 06:50:00,